Weather History for North Platte, NE

Change the Weather History Date:

Thursday, December 29, 2011

  Actual Average Record
Temperature  
Mean Temperature 44 °F 24 °F  
Max Temperature 65 °F 38 °F 66 °F (1999)
Min Temperature 22 °F 11 °F -26 °F (1880)
Degree Days  
Heating Degree Days 21 41  
Month to date heating degree days 1093 1150  
Since 1 July heating degree days 2509 2701  
Cooling Degree Days 0 0  
Month to date cooling degree days 0 0  
Year to date cooling degree days 921 768  
Moisture  
Dew Point 29 °F    
Average Humidity 63    
Maximum Humidity 96    
Minimum Humidity 30    
Precipitation  
Precipitation T in 0.02 in 0.68 in (1906)
Month to date precipitation 0.25 0.39  
Year to date precipitation 23.65 20.21  
Snow  
Snow 0.00 in 0.20 in 8.00 in (2006)
Month to date snowfall 3.0 4.3  
Since 1 July snowfall 4.5 10.5  
Snow Depth 0.00 in    
Sea Level Pressure  
Sea Level Pressure 29.74 in    
Wind  
Wind Speed 11 mph (WNW)    
Max Wind Speed 41 mph    
Max Gust Speed 52 mph    
Visibility 10 miles    
Events      
T = Trace of Precipitation, MM = Missing Value Source: NWS Daily Summary

Daily Weather History Graph

Daily Weather History Graph

Search for Another Location

Airport:

Trip Planner

Search our weather history database for the weather conditions in past years. The results will help you decide how hot, cold, wet, or windy it might be!

Date:

Astronomy

Dec. 29, 2011 Rise Set
Actual Time 8:07 AM CST 5:22 PM CST
Civil Twilight 7:36 AM CST 5:53 PM CST
Nautical Twilight 7:01 AM CST 6:27 PM CST
Astronomical Twilight 6:28 AM CST 7:01 PM CST
Moon 10:58 AM CST (12/29) 11:03 PM CST (12/29)
Length of Visible Light 10h 16m
Length of Day
9h 14m
Waxing Crescent, 27% of the Moon is Illuminated
Dec 29
Waxing Crescent
Jan 1
First Quarter
Jan 9
Full
Jan 16
Last Quarter
Jan 23
New

Hourly Weather History & Observations

Time (CST) Temp. Windchill Dew Point Humidity Pressure Visibility Wind Dir Wind Speed Gust Speed Precip Events Conditions
12:53 AM 25.0 °F 17.1 °F 21.0 °F 85% 29.88 in 10.0 mi WNW 6.9 mph - N/A   Clear
1:53 AM 26.1 °F 17.6 °F 21.9 °F 84% 29.86 in 10.0 mi WNW 8.1 mph - N/A   Clear
2:53 AM 26.1 °F 19.4 °F 21.9 °F 84% 29.86 in 10.0 mi WNW 5.8 mph - N/A   Clear
3:53 AM 28.0 °F 20.8 °F 24.1 °F 85% 29.83 in 10.0 mi NW 6.9 mph - N/A   Clear
4:53 AM 28.9 °F 22.8 °F 25.0 °F 85% 29.83 in 10.0 mi NW 5.8 mph - N/A   Clear
5:53 AM 25.0 °F 20.7 °F 21.9 °F 88% 29.82 in 10.0 mi NW 3.5 mph - N/A   Clear
6:53 AM 23.0 °F - 21.0 °F 92% 29.83 in 10.0 mi Calm Calm - N/A   Clear
7:53 AM 27.0 °F - 24.1 °F 89% 29.82 in 10.0 mi Calm Calm - N/A   Clear
8:53 AM 30.0 °F - 26.1 °F 85% 29.79 in 10.0 mi Calm Calm - N/A   Clear
9:53 AM 35.6 °F - 30.2 °F 81% 29.71 in 10.0 mi Calm Calm - N/A   Clear
10:53 AM 41.0 °F 38.0 °F 32.0 °F 70% 29.70 in 10.0 mi WNW 4.6 mph - N/A   Clear
11:53 AM 50.0 °F - 32.0 °F 50% 29.68 in 10.0 mi NW 5.8 mph - N/A   Clear
12:53 PM 57.9 °F - 32.0 °F 37% 29.60 in 10.0 mi WNW 6.9 mph - N/A   Mostly Cloudy
1:53 PM 64.0 °F - 33.1 °F 31% 29.54 in 10.0 mi West 24.2 mph 29.9 mph N/A   Partly Cloudy
2:53 PM 64.0 °F - 32.0 °F 30% 29.54 in 10.0 mi WNW 28.8 mph 39.1 mph N/A   Mostly Cloudy
3:53 PM 60.8 °F - 32.0 °F 34% 29.52 in 10.0 mi WNW 21.9 mph 33.4 mph N/A   Mostly Cloudy
4:53 PM 54.0 °F - 37.9 °F 55% 29.61 in 10.0 mi NW 24.2 mph 33.4 mph 0.00 in   Overcast
5:53 PM 50.0 °F - 37.0 °F 61% 29.62 in 10.0 mi NW 15.0 mph - 0.00 in   Mostly Cloudy
6:53 PM 45.0 °F 35.2 °F 37.0 °F 74% 29.72 in 10.0 mi NNW 29.9 mph 51.8 mph N/A   Mostly Cloudy
7:53 PM 42.1 °F 34.5 °F 35.1 °F 76% 29.73 in 10.0 mi North 15.0 mph 24.2 mph N/A   Mostly Cloudy
8:53 PM 39.0 °F 31.4 °F 33.1 °F 79% 29.81 in 10.0 mi WNW 12.7 mph - N/A   Overcast
9:53 PM 37.0 °F 28.5 °F 30.9 °F 79% 29.82 in 10.0 mi WNW 13.8 mph - N/A   Clear
10:53 PM 34.0 °F 24.6 °F 28.0 °F 79% 29.83 in 10.0 mi WNW 13.8 mph - N/A   Clear
11:53 PM 35.1 °F 24.8 °F 27.0 °F 72% 29.83 in 10.0 mi WNW 17.3 mph - N/A   Clear